Weather History for Mosby, MO

Change the Weather History Date:

Saturday, January 26, 2013

  Actual Average (KMKC) Record (KMKC)
Temperature  
Mean Temperature 32 °F -  
Max Temperature 44 °F 37 °F 64 °F (2002)
Min Temperature 21 °F 22 °F 12 °F (1997)
Degree Days  
Heating Degree Days 32    
Moisture  
Dew Point 24 °F    
Average Humidity 72    
Maximum Humidity 93    
Minimum Humidity 49    
Precipitation  
Precipitation 0.00 in - - ()
Sea Level Pressure  
Sea Level Pressure 30.23 in    
Wind  
Wind Speed 3 mph (ESE)    
Max Wind Speed 10 mph    
Max Gust Speed -    
Visibility 10 miles    
Events      
Averages and records for this station are not official NWS values.
T = Trace of Precipitation, MM = Missing Value Source: NWS Daily Summary

Daily Weather History Graph

Daily Weather History Graph

Search for Another Location

Airport:

Trip Planner

Search our weather history database for the weather conditions in past years. The results will help you decide how hot, cold, wet, or windy it might be!

Date:

Astronomy

Jan. 26, 2013 Rise Set
Actual Time 7:29 AM CST 5:31 PM CST
Civil Twilight 7:00 AM CST 5:59 PM CST
Nautical Twilight 6:28 AM CST 6:32 PM CST
Astronomical Twilight 5:56 AM CST 7:03 PM CST
Moon 5:26 PM CST (1/26) 6:47 AM CST (1/26)
Length of Visible Light 10h 59m
Length of Day
10h 02m
Full, 100% of the Moon is Illuminated
Jan 26
Full
Jan 26
Full
Feb 3
Last Quarter
Feb 10
New
Feb 17
First Quarter

Hourly Weather History & Observations

Time (CST) Temp. Windchill Dew Point Humidity Pressure Visibility Wind Dir Wind Speed Gust Speed Precip Events Conditions
12:15 AM 24.8 °F - 21.2 °F 86% 30.25 in 10.0 mi Calm Calm - N/A   Clear
12:35 AM 24.8 °F - 21.2 °F 86% 30.25 in 10.0 mi Calm Calm - N/A   Clear
12:55 AM 24.8 °F - 21.2 °F 86% 30.25 in 10.0 mi Calm Calm - N/A   Clear
1:15 AM 23.0 °F - 21.2 °F 93% 30.25 in 10.0 mi Calm Calm - N/A   Unknown
1:35 AM 24.8 °F - 21.2 °F 86% 30.26 in 10.0 mi Calm Calm - N/A   Clear
1:55 AM 24.8 °F - 21.2 °F 86% 30.27 in 10.0 mi Calm Calm - N/A   Clear
2:15 AM 23.0 °F - 21.2 °F 93% 30.27 in 10.0 mi Calm Calm - N/A   Clear
2:35 AM 24.8 °F - 21.2 °F 86% 30.27 in 10.0 mi Calm Calm - N/A   Clear
2:55 AM 24.8 °F - 21.2 °F 86% 30.27 in 10.0 mi Calm Calm - N/A   Clear
3:15 AM 24.8 °F - 21.2 °F 86% 30.27 in 10.0 mi Calm Calm - N/A   Clear
3:35 AM 24.8 °F - 21.2 °F 86% 30.27 in 10.0 mi Calm Calm - N/A   Clear
3:55 AM 24.8 °F - 21.2 °F 86% 30.27 in 10.0 mi Calm Calm - N/A   Clear
4:15 AM 26.6 °F - 21.2 °F 80% 30.27 in 10.0 mi Calm Calm - N/A   Clear
4:35 AM 26.6 °F - 23.0 °F 86% 30.27 in 10.0 mi Calm Calm - N/A   Clear
4:55 AM 24.8 °F - 21.2 °F 86% 30.27 in 10.0 mi Calm Calm - N/A   Clear
5:15 AM 24.8 °F - 21.2 °F 86% 30.27 in 10.0 mi Calm Calm - N/A   Clear
5:35 AM 23.0 °F - 21.2 °F 93% 30.27 in 10.0 mi Calm Calm - N/A   Clear
5:55 AM 23.0 °F - 21.2 °F 93% 30.28 in 10.0 mi Calm Calm - N/A   Clear
6:15 AM 23.0 °F - 21.2 °F 93% 30.28 in 10.0 mi Calm Calm - N/A   Clear
6:35 AM 23.0 °F - 21.2 °F 93% 30.29 in 10.0 mi Calm Calm - N/A   Clear
6:55 AM 21.2 °F - 19.4 °F 93% 30.30 in 10.0 mi Calm Calm - N/A   Clear
7:15 AM 21.2 °F - 19.4 °F 93% 30.30 in 10.0 mi Calm Calm - N/A   Clear
7:35 AM 23.0 °F - 19.4 °F 86% 30.30 in 10.0 mi Calm Calm - N/A   Clear
7:55 AM 23.0 °F 18.4 °F 21.2 °F 93% 30.31 in 10.0 mi East 3.5 mph - N/A   Clear
8:15 AM 24.8 °F 20.5 °F 21.2 °F 86% 30.31 in 10.0 mi East 3.5 mph - N/A   Clear
8:35 AM 28.4 °F - 23.0 °F 80% 30.31 in 10.0 mi Calm Calm - N/A   Clear
8:55 AM 28.4 °F 21.2 °F 24.8 °F 86% 30.31 in 10.0 mi East 6.9 mph - N/A   Clear
9:15 AM 28.4 °F 20.4 °F 24.8 °F 86% 30.31 in 10.0 mi East 8.1 mph - N/A   Clear
9:35 AM 30.2 °F 24.3 °F 24.8 °F 80% 30.31 in 10.0 mi ESE 5.8 mph - N/A   Clear
9:55 AM 30.2 °F 22.6 °F 24.8 °F 80% 30.31 in 10.0 mi East 8.1 mph - N/A   Clear
10:15 AM 32.0 °F 25.6 °F 24.8 °F 75% 30.32 in 10.0 mi East 6.9 mph - N/A   Clear
10:35 AM 32.0 °F 26.4 °F 24.8 °F 75% 30.32 in 10.0 mi East 5.8 mph - N/A   Clear
10:55 AM 32.0 °F 26.4 °F 24.8 °F 75% 30.32 in 10.0 mi East 5.8 mph - N/A   Clear
11:15 AM 32.0 °F 24.8 °F 24.8 °F 75% 30.31 in 10.0 mi East 8.1 mph - N/A   Clear
11:35 AM 33.8 °F 27.0 °F 23.0 °F 65% 30.31 in 10.0 mi East 8.1 mph - N/A   Clear
11:55 AM 33.8 °F 27.0 °F 24.8 °F 70% 30.30 in 10.0 mi East 8.1 mph - N/A   Clear
12:15 PM 35.6 °F 29.2 °F 24.8 °F 65% 30.29 in 10.0 mi East 8.1 mph - N/A   Clear
12:35 PM 37.4 °F 32.1 °F 24.8 °F 60% 30.27 in 10.0 mi SE 6.9 mph - N/A   Clear
12:55 PM 37.4 °F 32.1 °F 24.8 °F 60% 30.26 in 10.0 mi SE 6.9 mph - N/A   Clear
1:15 PM 37.4 °F 32.8 °F 24.8 °F 60% 30.25 in 10.0 mi ESE 5.8 mph - N/A   Clear
1:35 PM 41.0 °F 34.7 °F 26.6 °F 57% 30.24 in 10.0 mi ESE 10.4 mph - N/A   Clear
1:55 PM 41.0 °F 35.8 °F 26.6 °F 57% 30.22 in 10.0 mi ESE 8.1 mph - N/A   Clear
2:15 PM 42.8 °F 38.0 °F 26.6 °F 53% 30.21 in 10.0 mi East 8.1 mph - N/A   Clear
2:35 PM 42.8 °F 38.0 °F 26.6 °F 53% 30.21 in 10.0 mi ESE 8.1 mph - N/A   Clear
2:55 PM 42.8 °F 37.5 °F 26.6 °F 53% 30.20 in 10.0 mi ESE 9.2 mph - N/A   Clear
3:15 PM 44.6 °F 39.7 °F 26.6 °F 49% 30.19 in 10.0 mi ESE 9.2 mph - N/A   Clear
3:35 PM 42.8 °F 39.3 °F 26.6 °F 53% 30.20 in 10.0 mi ESE 5.8 mph - N/A   Clear
3:55 PM 44.6 °F 40.2 °F 26.6 °F 49% 30.19 in 10.0 mi East 8.1 mph - N/A   Clear
4:15 PM 44.6 °F 39.2 °F 26.6 °F 49% 30.18 in 10.0 mi East 10.4 mph - N/A   Clear
4:35 PM 42.8 °F 37.0 °F 26.6 °F 53% 30.17 in 10.0 mi East 10.4 mph - N/A   Clear
4:55 PM 42.8 °F 37.5 °F 26.6 °F 53% 30.17 in 10.0 mi East 9.2 mph - N/A   Clear
5:15 PM 42.8 °F 37.5 °F 26.6 °F 53% 30.16 in 10.0 mi East 9.2 mph - N/A   Clear
5:35 PM 41.0 °F 35.8 °F 26.6 °F 57% 30.16 in 10.0 mi East 8.1 mph - N/A   Clear
5:55 PM 41.0 °F 35.8 °F 26.6 °F 57% 30.15 in 10.0 mi East 8.1 mph - N/A   Clear
6:15 PM 39.2 °F 34.2 °F 26.6 °F 61% 30.15 in 10.0 mi East 6.9 mph - N/A   Clear
6:35 PM 39.2 °F 34.2 °F 26.6 °F 61% 30.16 in 10.0 mi East 6.9 mph - N/A   Clear
6:55 PM 37.4 °F 31.4 °F 26.6 °F 65% 30.15 in 10.0 mi East 8.1 mph - N/A   Clear
7:15 PM 37.4 °F 32.1 °F 26.6 °F 65% 30.15 in 10.0 mi ESE 6.9 mph - N/A   Clear
7:35 PM 37.4 °F 31.4 °F 24.8 °F 60% 30.15 in 10.0 mi ESE 8.1 mph - N/A   Clear
7:55 PM 37.4 °F 33.8 °F 24.8 °F 60% 30.15 in 10.0 mi ESE 4.6 mph - N/A   Clear
8:15 PM 37.4 °F 32.8 °F 24.8 °F 60% 30.15 in 10.0 mi East 5.8 mph - N/A   Clear
8:35 PM 37.4 °F 31.4 °F 24.8 °F 60% 30.15 in 10.0 mi ESE 8.1 mph - N/A   Scattered Clouds
8:55 PM 37.4 °F 31.4 °F 24.8 °F 60% 30.14 in 10.0 mi East 8.1 mph - N/A   Scattered Clouds
9:15 PM 35.6 °F 29.2 °F 24.8 °F 65% 30.14 in 10.0 mi East 8.1 mph - N/A   Scattered Clouds
9:35 PM 35.6 °F 30.7 °F 24.8 °F 65% 30.14 in 10.0 mi ESE 5.8 mph - N/A   Scattered Clouds
9:55 PM 35.6 °F 30.7 °F 24.8 °F 65% 30.13 in 10.0 mi ESE 5.8 mph - N/A   Scattered Clouds
10:15 PM 37.4 °F 31.4 °F 26.6 °F 65% 30.12 in 10.0 mi ESE 8.1 mph - N/A   Scattered Clouds
10:35 PM 37.4 °F 30.8 °F 26.6 °F 65% 30.12 in 10.0 mi ESE 9.2 mph - N/A   Clear
10:55 PM 37.4 °F 30.8 °F 26.6 °F 65% 30.12 in 10.0 mi ESE 9.2 mph - N/A   Clear
11:15 PM 37.4 °F 30.8 °F 26.6 °F 65% 30.11 in 10.0 mi ESE 9.2 mph - N/A   Clear
11:35 PM 37.4 °F 31.4 °F 26.6 °F 65% 30.11 in 10.0 mi ESE 8.1 mph - N/A   Clear
11:55 PM 37.4 °F 32.1 °F 26.6 °F 65% 30.11 in 10.0 mi ESE 6.9 mph - N/A   Clear